Previsão horária em Almudevar

Hoje, 16 Janeiro, Sábado

Tempo Temperatura Precipitação Vento Pressão Humidade
00:00 0°C° 0 mm 9 m/s 730 mmHg 77%
01:00 0°C° 0 mm 8 m/s 730 mmHg 78%
02:00 0°C° 0 mm 7 m/s 729 mmHg 78%
03:00 -1°C° 0 mm 7 m/s 729 mmHg 78%
04:00 -1°C° 0 mm 6 m/s 730 mmHg 78%
05:00 0°C° 0 mm 5 m/s 730 mmHg 79%
06:00 0°C° 0 mm 5 m/s 730 mmHg 80%
07:00 0°C° 0 mm 4 m/s 730 mmHg 77%
08:00 0°C° 0 mm 4 m/s 731 mmHg 75%
09:00 +1°C° 0 mm 4 m/s 731 mmHg 73%
10:00 +4°C° 0 mm 3 m/s 731 mmHg 65%
11:00 +5°C° 0 mm 3 m/s 731 mmHg 57%
12:00 +8°C° 0 mm 3 m/s 731 mmHg 49%
13:00 +9°C° 0 mm 3 m/s 731 mmHg 49%
14:00 +9°C° 0 mm 3 m/s 730 mmHg 50%
15:00 +10°C° 0 mm 4 m/s 730 mmHg 50%
16:00 +8°C° 0 mm 4 m/s 730 mmHg 54%
17:00 +6°C° 0 mm 4 m/s 731 mmHg 58%
18:00 +4°C° 0 mm 3 m/s 731 mmHg 62%
19:00 +4°C° 0 mm 3 m/s 731 mmHg 62%
20:00 +4°C° 0 mm 3 m/s 731 mmHg 62%
21:00 +3°C° 0 mm 3 m/s 731 mmHg 63%
22:00 +3°C° 0 mm 3 m/s 731 mmHg 62%
23:00 +3°C° 0 mm 3 m/s 731 mmHg 60%

Amanhã, 17 Janeiro, Domingo

Tempo Temperatura Precipitação Vento Pressão Humidade
00:00 +3°C° 0 mm 3 m/s 731 mmHg 59%
01:00 +3°C° 0 mm 4 m/s 731 mmHg 58%
02:00 +3°C° 0 mm 4 m/s 731 mmHg 57%
03:00 +2°C° 0 mm 5 m/s 730 mmHg 56%
04:00 +2°C° 0 mm 5 m/s 730 mmHg 61%
05:00 +2°C° 0 mm 5 m/s 730 mmHg 67%
06:00 +3°C° 0 mm 5 m/s 730 mmHg 72%
07:00 +3°C° 0 mm 6 m/s 730 mmHg 73%
08:00 +4°C° 0 mm 6 m/s 730 mmHg 74%
09:00 +5°C° 0 mm 6 m/s 730 mmHg 74%
10:00 +8°C° 0 mm 7 m/s 731 mmHg 71%
11:00 +9°C° 0 mm 8 m/s 731 mmHg 68%
12:00 +11°C° 0 mm 8 m/s 731 mmHg 65%
13:00 +11°C° 0 mm 9 m/s 730 mmHg 66%
14:00 +11°C° 0 mm 9 m/s 730 mmHg 67%
15:00 +11°C° 0 mm 9 m/s 730 mmHg 68%
16:00 +10°C° 0 mm 8 m/s 730 mmHg 72%
17:00 +9°C° 0 mm 7 m/s 730 mmHg 76%
18:00 +7°C° 0 mm 6 m/s 730 mmHg 80%
19:00 +7°C° 0 mm 6 m/s 730 mmHg 81%
20:00 +5°C° 0 mm 6 m/s 731 mmHg 82%
21:00 +6°C° 0 mm 5 m/s 731 mmHg 84%
22:00 +5°C° 0 mm 5 m/s 731 mmHg 84%
23:00 +4°C° 0 mm 4 m/s 731 mmHg 85%

Depois de amanhã, 18 Janeiro, Segunda-feira

Tempo Temperatura Precipitação Vento Pressão Humidade
00:00 +4°C° 0 mm 3 m/s 731 mmHg 85%
01:00 +3°C° 0 mm 3 m/s 731 mmHg 83%
02:00 +3°C° 0 mm 3 m/s 731 mmHg 81%
03:00 +3°C° 0 mm 2 m/s 730 mmHg 79%
04:00 +3°C° 0 mm 2 m/s 730 mmHg 76%
05:00 +3°C° 0 mm 2 m/s 730 mmHg 74%
06:00 +3°C° 0 mm 2 m/s 730 mmHg 72%
07:00 +4°C° 0 mm 1 m/s 730 mmHg 70%
08:00 +5°C° 0 mm 1 m/s 731 mmHg 69%
09:00 +6°C° 0 mm 1 m/s 731 mmHg 67%
10:00 +7°C° 0 mm 1 m/s 731 mmHg 63%
11:00 +8°C° 0 mm 2 m/s 731 mmHg 59%
12:00 +9°C° 0 mm 2 m/s 730 mmHg 55%
13:00 +10°C° 0 mm 2 m/s 730 mmHg 56%
14:00 +10°C° 0 mm 2 m/s 730 mmHg 56%
15:00 +12°C° 0 mm 2 m/s 730 mmHg 56%
16:00 +9°C° 0 mm 2 m/s 730 mmHg 62%
17:00 +8°C° 0 mm 1 m/s 730 mmHg 68%
18:00 +6°C° 0 mm 1 m/s 730 mmHg 74%
19:00 +6°C° 0 mm 1 m/s 730 mmHg 76%
20:00 +5°C° 0 mm 1 m/s 730 mmHg 77%
21:00 +5°C° 0 mm 1 m/s 730 mmHg 79%
22:00 +4°C° 0 mm 1 m/s 730 mmHg 80%
23:00 +4°C° 0 mm 1 m/s 730 mmHg 81%

19 Janeiro, Terça-feira

Tempo Temperatura Precipitação Vento Pressão Humidade
00:00 +4°C° 0 mm 1 m/s 730 mmHg 83%
01:00 +4°C° 0 mm 1 m/s 729 mmHg 84%
02:00 +3°C° 0 mm 1 m/s 729 mmHg 85%
03:00 +3°C° 0 mm 1 m/s 728 mmHg 86%
04:00 +3°C° 0 mm 1 m/s 728 mmHg 86%
05:00 +3°C° 0 mm 1 m/s 728 mmHg 86%
06:00 +3°C° 0 mm 1 m/s 728 mmHg 86%
07:00 +4°C° 0 mm 1 m/s 728 mmHg 83%
08:00 +3°C° 0 mm 2 m/s 728 mmHg 80%
09:00 +4°C° 0 mm 2 m/s 727 mmHg 77%
10:00 +6°C° 0 mm 2 m/s 727 mmHg 72%
11:00 +7°C° 0 mm 2 m/s 727 mmHg 68%
12:00 +8°C° 0 mm 3 m/s 727 mmHg 63%
13:00 +9°C° 0 mm 3 m/s 726 mmHg 62%
14:00 +9°C° 0 mm 3 m/s 725 mmHg 62%
15:00 +9°C° 0 mm 3 m/s 725 mmHg 61%
16:00 +8°C° 0 mm 3 m/s 725 mmHg 66%
17:00 +7°C° 0 mm 3 m/s 725 mmHg 72%
18:00 +4°C° 0 mm 3 m/s 725 mmHg 78%
19:00 +4°C° 0 mm 3 m/s 724 mmHg 77%
20:00 +4°C° 0 mm 3 m/s 724 mmHg 77%
21:00 +4°C° 0 mm 3 m/s 724 mmHg 77%
22:00 +3°C° 0 mm 3 m/s 724 mmHg 77%
23:00 +3°C° 0 mm 3 m/s 723 mmHg 77%

20 Janeiro, Quarta-feira

Tempo Temperatura Precipitação Vento Pressão Humidade
00:00 +3°C° 0 mm 3 m/s 723 mmHg 77%
01:00 +3°C° 0 mm 3 m/s 722 mmHg 77%
02:00 +3°C° 0 mm 3 m/s 722 mmHg 77%
03:00 +3°C° 0 mm 3 m/s 721 mmHg 77%
04:00 +3°C° 0 mm 3 m/s 720 mmHg 77%
05:00 +2°C° 0 mm 3 m/s 720 mmHg 77%
06:00 +2°C° 0 mm 3 m/s 720 mmHg 78%
07:00 +3°C° 0 mm 3 m/s 719 mmHg 75%
08:00 +4°C° 0 mm 3 m/s 719 mmHg 73%
09:00 +4°C° 0 mm 3 m/s 719 mmHg 70%
10:00 +5°C° 0 mm 4 m/s 718 mmHg 70%
11:00 +6°C° 0 mm 5 m/s 717 mmHg 69%
12:00 +7°C° 0 mm 6 m/s 717 mmHg 68%
13:00 +5°C° 0.1 mm 6 m/s 716 mmHg 72%
14:00 +5°C° 0.1 mm 6 m/s 715 mmHg 76%
15:00 +4°C° 0.1 mm 6 m/s 714 mmHg 80%
16:00 +5°C° 0.1 mm 5 m/s 715 mmHg 83%
17:00 +5°C° 0.1 mm 5 m/s 715 mmHg 86%
18:00 +5°C° 0.1 mm 4 m/s 715 mmHg 89%
19:00 +5°C° 0.4 mm 4 m/s 715 mmHg 90%
20:00 +5°C° 0.4 mm 4 m/s 715 mmHg 90%
21:00 +5°C° 0.4 mm 3 m/s 715 mmHg 91%
22:00 +5°C° 0.1 mm 3 m/s 715 mmHg 91%
23:00 +5°C° 0.1 mm 3 m/s 716 mmHg 91%

21 Janeiro, Quinta-feira

Tempo Temperatura Precipitação Vento Pressão Humidade
00:00 +6°C° 0.1 mm 2 m/s 716 mmHg 91%
01:00 +6°C° 0 mm 2 m/s 716 mmHg 90%
02:00 +6°C° 0 mm 2 m/s 717 mmHg 90%
03:00 +6°C° 0 mm 2 m/s 717 mmHg 89%
04:00 +6°C° 0 mm 2 m/s 717 mmHg 87%
05:00 +6°C° 0 mm 2 m/s 718 mmHg 85%
06:00 +5°C° 0 mm 3 m/s 718 mmHg 83%
07:00 +7°C° 0 mm 2 m/s 718 mmHg 81%
08:00 +7°C° 0 mm 2 m/s 719 mmHg 78%
09:00 +7°C° 0 mm 2 m/s 719 mmHg 75%
10:00 +8°C° 0 mm 3 m/s 719 mmHg 69%
11:00 +10°C° 0 mm 3 m/s 719 mmHg 62%
12:00 +11°C° 0 mm 4 m/s 719 mmHg 55%
13:00 +11°C° 0 mm 3 m/s 719 mmHg 57%
14:00 +11°C° 0 mm 3 m/s 718 mmHg 59%
15:00 +12°C° 0 mm 2 m/s 718 mmHg 61%
16:00 +10°C° 0.3 mm 2 m/s 718 mmHg 68%
17:00 +9°C° 0.3 mm 2 m/s 717 mmHg 74%
18:00 +8°C° 0.3 mm 2 m/s 717 mmHg 81%
19:00 +8°C° 0.1 mm 2 m/s 717 mmHg 83%
20:00 +8°C° 0.1 mm 2 m/s 716 mmHg 85%
21:00 +7°C° 0.1 mm 2 m/s 716 mmHg 87%
22:00 +7°C° 0.3 mm 2 m/s 716 mmHg 88%
23:00 +7°C° 0.3 mm 3 m/s 716 mmHg 89%
Mostrar mais

Necessitamos do seu Consentimento

A Meteoprog e os seus Fornecedores de Serviços podem armazenar e aceder a dados pessoais como cookies, identificadores do dispositivo ou outras tecnologias semelhantes existentes no seu dispositivo e processar estes dados para personalizar conteúdos e anúncios, assim como funcionalidades nas redes sociais e análise de tráfego.

  • Armazenar e/ou aceder a informações no seu dispositivo

    Os cookies, identificadores do dispositivo ou outras informações podem ser armazenados ou acedidos no seu dispositivo, para os fins acima indicados.

  • Anúncios e conteúdos personalizados, medição de anúncios e conteúdos, dados sobre o público-alvo e desenvolvimento de produtos

    Os anúncios e os conteúdos podem ser personalizados com base num perfil. Podem ser adicionados dados adicionais para uma maior personalização dos anúncios e dos conteúdos. A eficácia dos anúncios e dos conteúdos pode ser medida. Podem ser obtidas informações sobre o público que visualizou os anúncios e os conteúdos. Estes dados podem ser usados para desenvolver ou melhorar sistemas, softwares ou a experiência do utilizador.

Ao clicar em "Eu concordo”, permitirá o uso de cookies, identificadores do dispositivo e web beacons mencionados ou outras tecnologias semelhantes. As configurações do navegador do seu dispositivo podem ser alteradas.

Para certos fins, podem ser invocados interesses legítimos ao invés de consentimento. Pode ler mais informação sobre este assunto na nossa Política de Privacidade e Cookies.